Regional Weather Roundup
Issued by NWS Green Bay, WI

Home | Current Version | Previous Version | Graphics & Text | Print | Product List | Glossary Off
Versions: 1 2 3 4 5 6 7 8 9 10 11 12 13 14 15 16 17 18 19 20 21 22 23 24 25 26 27 28 29 30 31 32 33 34 35 36 37 38 39 40 41 42 43 44 45 46 47 48 49 50

000
ASUS43 KGRB 270300
RWRGRB

NORTH-CENTRAL AND NORTHEAST WISCONSIN REGIONAL WEATHER ROUNDUP
NATIONAL WEATHER SERVICE GREEN BAY WI
1000 PM CDT THU MAY 26 2016

WIZ005-009-010>012-018-019-270400-
NORTH CENTRAL WISCONSIN

CITY           SKY/WX    TMP DP  RH WIND       PRES   REMARKS
IRONWOOD       CLOUDY    61  59  94 E3        29.82R
MANITOWISH WTR NOT AVBL
ARBOR VITAE    NOT AVBL
EAGLE RIVER    NOT AVBL
LAND O LAKES   NOT AVBL
RHINELANDER    PTCLDY    62  56  80 S3        29.89R
PHILLIPS       NOT AVBL
ANTIGO         NOT AVBL
TOMAHAWK       NOT AVBL
MERRILL        MOCLDY    63  61  94 CALM      29.88R
$$

WIZ013-073-270400-
NORTHEAST WISCONSIN

CITY           SKY/WX    TMP DP  RH WIND       PRES   REMARKS
IRON MOUNTAIN  MOCLDY    65  61  87 S5        29.87R
MARINETTE      PTCLDY    61  57  88 S3        29.88S
$$

WIZ017-030-035>037-045-270400-
CENTRAL WISCONSIN

CITY           SKY/WX    TMP DP  RH WIND       PRES   REMARKS
MEDFORD        NOT AVBL
WAUSAU         PTCLDY    67  61  81 CALM      29.86R
MOSINEE        CLEAR     64  61  88 CALM      29.89R
MARSHFIELD     PTCLDY    68  58  70 S5        29.87R
WISC RAPIDS    PTCLDY    63  58  83 CALM      29.89R
STEVENS POINT  NOT AVBL
WAUPACA        NOT AVBL
SHAWANO        NOT AVBL
CLINTONVILLE   NOT AVBL
WAUTOMA        PTCLDY    65  62  90 CALM      29.88S
$$

WIZ038-039-048-051-270400-
FOX VALLEY

CITY           SKY/WX    TMP DP  RH WIND       PRES   REMARKS
NWS GREEN BAY  CLOUDY    66  60  81 CALM      29.88R
APPLETON       NOT AVBL
OSHKOSH        PTCLDY    64  58  80 CALM      29.87R
FOND DU LAC    PTCLDY    65  59  81 CALM      29.88R
$$

WIZ022-050-052-270400-
EAST CENTRAL WISCONSIN

CITY           SKY/WX    TMP DP  RH WIND       PRES   REMARKS
EPHRAIM        NOT AVBL
STURGEON BAY   NOT AVBL
MANITOWOC      NOT AVBL
SHEBOYGAN      PTCLDY    64  59  83 CALM      29.89R
$$

LMZ563-521-522-541>543-270400-
LAKESHORE

STATION/POSITION TIME  TEMP    WIND        PRES    VSBY  WAVE
                       AIR SEA DIR/SP/G                  HT/PER
                 (UTC) (F)     (DEG/KT/KT) (MB)    (MI)  (FT/S)
SHEBOYGAN LKSHOR 0200   64     200/  5/  5 1011.9R
KEWAUNEE LKSHORE 0200                      1011.0R
ALGOMA MARINA    0202             CALM       N/A
NORTHPORT PIER   0200   61     180/  3/  5 1011.5R
N MID LAKE BUOY  0150   48 45  210/  4/  6 1011.3R         2/ 5
SISTER BAY LKSHO 0220   60     160/  7/  9   N/A
CHAMBERS ISLAND  0200   62     130/  3/  4 1011.9R
MENOMINEE LKSHOR 0200                      1010.5R
$$




USA.gov is the U.S. government's official web portal to all federal, state and local government web resources and services.